Weather History for Hillsboro, TX

Change the Weather History Date:

Monday, October 8, 2012

  Actual Average (KACT) Record (KACT)
Temperature  
Mean Temperature 52 °F 71 °F  
Max Temperature 66 °F 83 °F 97 °F (1977)
Min Temperature 37 °F 59 °F 36 °F (1952)
Degree Days  
Heating Degree Days 14 1  
Month to date heating degree days 8  
Since 1 July heating degree days 14  
Cooling Degree Days 0 7  
Month to date cooling degree days 60  
Year to date cooling degree days 2654  
Growing Degree Days 2 (Base 50)    
Moisture  
Dew Point 38 °F    
Average Humidity 60    
Maximum Humidity 87    
Minimum Humidity 35    
Precipitation  
Precipitation 0.00 in 0.13 in 1.10 in (1945)
Month to date precipitation 0.92  
Year to date precipitation 26.14  
Snow  
Snow 0.00 in 0.00 in 0.00 in ()
Month to date snowfall 0.0  
Since 1 July snowfall 0.0  
Since 1 September snowfall 0.0  
Snow Depth -    
Sea Level Pressure  
Sea Level Pressure 30.18 in    
Wind  
Wind Speed 2 mph (ESE)    
Max Wind Speed 8 mph    
Max Gust Speed -    
Visibility 10 miles    
Events      
T = Trace of Precipitation, MM = Missing Value Source: NWS Daily Summary

Daily Weather History Graph

Daily Weather History Graph

Search for Another Location

Airport:

Trip Planner

Search our weather history database for the weather conditions in past years. The results will help you decide how hot, cold, wet, or windy it might be!

Date:

Astronomy

Oct. 08, 2012 Rise Set
Actual Time 7:27 AM CDT 7:03 PM CDT
Civil Twilight 7:02 AM CDT 7:28 PM CDT
Nautical Twilight 6:34 AM CDT 7:56 PM CDT
Astronomical Twilight 6:06 AM CDT 8:24 PM CDT
Moon 12:31 AM CDT (10/8) 2:32 PM CDT (10/8)
Length of Visible Light 12h 25m
Length of Day
11h 36m
Last Quarter, 46% of the Moon is Illuminated
Oct 8
Last Quarter
Oct 15
New
Oct 21
First Quarter
Oct 29
Full
Nov 6
Last Quarter

Hourly Weather History & Observations

Time (CDT) Temp. Dew Point Humidity Pressure Visibility Wind Dir Wind Speed Gust Speed Precip Events Conditions
12:15 AM 48.2 °F 39.2 °F 71% 30.23 in 10.0 mi Calm Calm - N/A   Overcast
12:35 AM 48.2 °F 39.2 °F 71% 30.23 in 10.0 mi Calm Calm - N/A   Overcast
12:55 AM 48.2 °F 39.2 °F 71% 30.23 in 10.0 mi Calm Calm - N/A   Overcast
1:15 AM 48.2 °F 39.2 °F 71% 30.23 in 10.0 mi Calm Calm - N/A   Overcast
1:35 AM 48.2 °F 37.4 °F 66% 30.23 in 10.0 mi Calm Calm - N/A   Overcast
1:55 AM 48.2 °F 37.4 °F 66% 30.24 in 10.0 mi Calm Calm - N/A   Overcast
2:15 AM 48.2 °F 37.4 °F 66% 30.24 in 10.0 mi Calm Calm - N/A   Overcast
2:35 AM 48.2 °F 37.4 °F 66% 30.24 in 10.0 mi Calm Calm - N/A   Overcast
2:55 AM 48.2 °F 37.4 °F 66% 30.23 in 10.0 mi Calm Calm - N/A   Overcast
3:15 AM 46.4 °F 37.4 °F 71% 30.23 in 10.0 mi Calm Calm - N/A   Mostly Cloudy
3:35 AM 44.6 °F 37.4 °F 76% 30.23 in 10.0 mi Calm Calm - N/A   Clear
3:55 AM 44.6 °F 37.4 °F 76% 30.23 in 10.0 mi Calm Calm - N/A   Clear
4:15 AM 42.8 °F 37.4 °F 81% 30.23 in 10.0 mi Calm Calm - N/A   Clear
4:35 AM 41.0 °F 35.6 °F 81% 30.22 in 10.0 mi Calm Calm - N/A   Clear
4:55 AM 42.8 °F 37.4 °F 81% 30.22 in 10.0 mi Calm Calm - N/A   Clear
5:15 AM 41.0 °F 35.6 °F 81% 30.23 in 10.0 mi Calm Calm - N/A   Clear
5:35 AM 42.8 °F 37.4 °F 81% 30.23 in 10.0 mi Calm Calm - N/A   Clear
5:55 AM 41.0 °F 35.6 °F 81% 30.23 in 10.0 mi Calm Calm - N/A   Clear
6:15 AM 41.0 °F 35.6 °F 81% 30.23 in 10.0 mi Calm Calm - N/A   Clear
6:35 AM 39.2 °F 35.6 °F 87% 30.24 in 10.0 mi Calm Calm - N/A   Clear
6:55 AM 37.4 °F 33.8 °F 87% 30.24 in 10.0 mi Calm Calm - N/A   Clear
7:15 AM 37.4 °F 33.8 °F 87% 30.25 in 10.0 mi Calm Calm - N/A   Clear
7:35 AM 37.4 °F 33.8 °F 87% 30.25 in 10.0 mi Calm Calm - N/A   Clear
7:55 AM 37.4 °F 33.8 °F 87% 30.25 in 10.0 mi Calm Calm - N/A   Clear
8:15 AM 41.0 °F 35.6 °F 81% 30.26 in 10.0 mi Calm Calm - N/A   Clear
8:35 AM 44.6 °F 37.4 °F 76% 30.26 in 10.0 mi Calm Calm - N/A   Clear
8:55 AM 46.4 °F 35.6 °F 66% 30.26 in 10.0 mi Calm Calm - N/A   Clear
9:15 AM 50.0 °F 33.8 °F 54% 30.27 in 10.0 mi North 5.8 mph - N/A   Clear
9:55 AM 51.8 °F 35.6 °F 54% 30.27 in 10.0 mi North 3.5 mph - N/A   Clear
10:15 AM 53.6 °F 35.6 °F 51% 30.27 in 10.0 mi Calm Calm - N/A   Clear
10:35 AM 53.6 °F 35.6 °F 51% 30.27 in 10.0 mi Calm Calm - N/A   Clear
10:55 AM 55.4 °F 37.4 °F 51% 30.27 in 10.0 mi NNE 4.6 mph - N/A   Clear
11:15 AM 55.4 °F 37.4 °F 51% 30.26 in 10.0 mi Calm Calm - N/A   Clear
11:35 AM 57.2 °F 37.4 °F 48% 30.25 in 10.0 mi Calm Calm - N/A   Clear
11:55 AM 57.2 °F 37.4 °F 48% 30.24 in 10.0 mi Calm Calm - N/A   Clear
12:15 PM 59.0 °F 37.4 °F 45% 30.24 in 10.0 mi Calm Calm - N/A   Clear
12:35 PM 60.8 °F 37.4 °F 42% 30.23 in 7.0 mi Calm Calm - N/A   Clear
12:55 PM 60.8 °F 37.4 °F 42% 30.21 in 10.0 mi ESE 3.5 mph - N/A   Clear
1:15 PM 60.8 °F 37.4 °F 42% 30.20 in 10.0 mi ENE 5.8 mph - N/A   Unknown
1:35 PM 62.6 °F 37.4 °F 39% 30.19 in 10.0 mi East 6.9 mph - N/A   Clear
1:55 PM 62.6 °F 37.4 °F 39% 30.18 in 10.0 mi SE 6.9 mph - N/A   Clear
2:15 PM 62.6 °F 37.4 °F 39% 30.16 in 10.0 mi Calm Calm - N/A   Clear
2:35 PM 62.6 °F 37.4 °F 39% 30.15 in 10.0 mi SE 4.6 mph - N/A   Clear
3:15 PM 64.4 °F 39.2 °F 40% 30.13 in 10.0 mi ESE 5.8 mph - N/A   Clear
3:35 PM 66.2 °F 39.2 °F 37% 30.13 in 10.0 mi ENE 6.9 mph - N/A   Clear
4:15 PM 66.2 °F 37.4 °F 35% 30.12 in 10.0 mi Calm Calm - N/A   Clear
4:55 PM 66.2 °F 39.2 °F 37% 30.10 in 10.0 mi SSE 8.1 mph - N/A   Clear
5:15 PM 66.2 °F 37.4 °F 35% 30.10 in 10.0 mi SE 6.9 mph - N/A   Clear
5:35 PM 66.2 °F 37.4 °F 35% 30.10 in 10.0 mi ESE 4.6 mph - N/A   Clear
5:55 PM 66.2 °F 41.0 °F 40% 30.09 in 10.0 mi ESE 4.6 mph - N/A   Clear
6:15 PM 64.4 °F 41.0 °F 42% 30.09 in 10.0 mi SE 6.9 mph - N/A   Clear
6:35 PM 64.4 °F 41.0 °F 42% 30.09 in 10.0 mi ESE 8.1 mph - N/A   Clear
6:55 PM 62.6 °F 41.0 °F 45% 30.08 in 10.0 mi ESE 5.8 mph - N/A   Clear
7:15 PM 60.8 °F 41.0 °F 48% 30.08 in 10.0 mi ESE 5.8 mph - N/A   Clear
7:35 PM 59.0 °F 41.0 °F 51% 30.08 in 10.0 mi ESE 6.9 mph - N/A   Clear
7:55 PM 57.2 °F 41.0 °F 55% 30.08 in 10.0 mi ESE 5.8 mph - N/A   Clear
8:15 PM 57.2 °F 41.0 °F 55% 30.09 in 10.0 mi ESE 6.9 mph - N/A   Clear
8:55 PM 55.4 °F 42.8 °F 63% 30.09 in 10.0 mi ESE 6.9 mph - N/A   Clear
9:15 PM 55.4 °F 42.8 °F 63% 30.09 in 10.0 mi ESE 6.9 mph - N/A   Clear
9:35 PM 55.4 °F 42.8 °F 63% 30.10 in 10.0 mi SE 6.9 mph - N/A   Clear
9:55 PM 55.4 °F 42.8 °F 63% 30.10 in 10.0 mi Calm Calm - N/A   Clear
10:15 PM 55.4 °F 44.6 °F 67% 30.09 in 10.0 mi Calm Calm - N/A   Clear
10:35 PM 55.4 °F 44.6 °F 67% 30.09 in 10.0 mi SE 8.1 mph - N/A   Clear
10:55 PM 55.4 °F 44.6 °F 67% 30.09 in 10.0 mi SE 6.9 mph - N/A   Clear
11:15 PM 55.4 °F 44.6 °F 67% 30.09 in 10.0 mi SE 8.1 mph - N/A   Clear
11:35 PM 55.4 °F 44.6 °F 67% 30.09 in 10.0 mi SE 8.1 mph - N/A   Clear
11:55 PM 55.4 °F 44.6 °F 67% 30.08 in 10.0 mi SE 8.1 mph - N/A   Clear